Hourly Data Report for September 28, 2017

All times are specified in Local Standard Time (LST). Add 1 hour to adjust for Daylight Saving Time where and when it is observed.

HALL BEACH A
NUNAVUT

68°46'33.000" N
81°14'33.000" W
9.10 m
2402354
71293
YUX

Related Data

No related data is available for this station

Download Data

Hourly Data (September 2017)
Hourly Data Report for September 28, 2017
Temp Definition
°C
Dew Point Temp Definition
°C
Rel Hum Definition
%
Wind Dir Definition
10's deg

Wind Spd Definition
km/h
Visibility Definition
km
Stn Press Definition
kPa
Hmdx Definition


Wind Chill Definition


Weather Definition


TIME
00:00 Legend Double Dagger -0.7 -2.4 88 32 32 16.1 100.54   -8 LegendNANA
01:00 Legend Double Dagger -1.3 -3.5 85 31 43 16.1 100.58   -9 LegendNANA
02:00 Legend Double Dagger -1.7 -4.2 83 32 39 16.1 100.67   -10 LegendNANA
03:00 Legend Double Dagger -1.7 -4.4 82 32 45 16.1 100.72   -10 LegendNANA
04:00 Legend Double Dagger -1.3 -4.6 79 32 43 16.1 100.74   -9 LegendNANA
05:00 Legend Double Dagger -1.4 -5.1 76 32 41 16.1 100.80   -9 LegendNANA
06:00 Legend Double Dagger -2.2 -5.8 76 32 24 16.1 100.83   -9 LegendNANA
07:00 Legend Double Dagger -1.7 -5.1 78 33 24 16.1 100.87   -8 LegendNANA
08:00 Legend Double Dagger -1.5 -4.6 80 31 21 16.1 100.88   -7 LegendNANA
09:00 Legend Double Dagger -1.6 -5.3 76 33 35 16.1 100.90   -9 LegendNANA
10:00 Legend Double Dagger -2.1 -7.4 67 32 46 16.1 100.95   -11 LegendNANA
11:00 Legend Double Dagger -1.6 -6.6 69 31 41 16.1 100.98   -10 LegendNANA
12:00 Legend Double Dagger -0.9 -6.5 66 31 45 16.1 100.99   -9 Snow
13:00 Legend Double Dagger -1.8 -6.5 70 33 41 16.1 101.04   -10 LegendNANA
14:00 Legend Double Dagger -2.4 -7.5 68 31 52 16.1 101.09   -12 LegendNANA
15:00 Legend Double Dagger -2.5 -7.7 67 31 45 16.1 101.15   -11 Snow
16:00 Legend Double Dagger -2.9 -7.3 72 31 48 14.5 101.18   -12 Snow
17:00 Legend Double Dagger -3.5 -8.6 68 31 48 16.1 101.20   -13 Snow
18:00 Legend Double Dagger -4.1 -9.7 65 32 52 16.1 101.21   -14 Snow
19:00 Legend Double Dagger -4.1 -8.6 71 32 41 16.1 101.21   -13 Snow
20:00 Legend Double Dagger -4.2 -8.7 71 30 41 16.1 101.18   -13 Snow
21:00 Legend Double Dagger -3.6 -8.4 70 29 35 16.1 101.14   -12 LegendNANA
22:00 Legend Double Dagger -3.2 -8.1 69 30 50 16.1 101.07   -13 LegendNANA
23:00 Legend Double Dagger -3.1 -7.4 73 30 52 16.1 101.05   -13 Snow

Notes on Data Quality.

Legend

  • E = Estimated
  • M = Missing
  • NA = Not Available
  • ‡ = Partner data that is not subject to review by the National Climate Archives
Date modified: